DELTA 1 DEB, 29185

Orbit data source: Space-Track

DELTA 1 DEB, 29185 is space debris in LEO originally from a launch on Thu, 11 Jan 1968 UTC launched from the Air Force Western Test Range (AFWTR). Debris objects in space refer to the collection of defunct objects orbiting the Earth. Examples of debris include non-operational satellites, rocket bodies, and fragments generated from explosions, collisions, or faulty payload assembly.

Loading next visibility...
Identifier
29185, 1968-002J
Orbit
LEO
Country
Flag of USUS
Related business
Manufacturer
Unknown
Mission
Spacecraft
Bus & Motor
Unknown
Mass
Unknown
Launch date (UTC)
1968-01-11 (58 years ago)
Launch vehicle
Unknown
Launch site
Air Force Western Test Range (AFWTR)
Object type
Payload
Rocket body
Debris
Shape & HBR
Unknown
Radar Cross Section
Small (<0.1 m²)

Expand to show TLE details & history
Last TLE update: 5 days ago

TLE from 5 days ago
0 DELTA 1 DEB
1 29185U 68002J   25256.44388626  .00000384  00000-0  98535-3 0  9990
2 29185 105.7900 316.5511 0249855  59.2057 303.3375 13.19960049430599
Epoch: 2025-09-13T10:39Z
TLE epoch observation values (Epoch: 2025-09-13T10:39:11.772Z)
Latitude
-0.00001°
Longitude
164.07489°
Altitude
1,086.85 km
Speed
7.357 km/s
True Right ascension
21h 06m 12s
True Declination
0° 00' 00"
Sunlit
Object was in full shadow at epoch
Visualization orbit readout
Latitude
Unknown
Longitude
Unknown
Altitude
Unknown
Speed
Unknown
Apparent Right ascension
Unknown
Apparent Declination
Unknown
Sunlit
N/A
Visualization observer readout
Local Sidereal Time
13:32:44
Azimuth
Unknown
Elevation
Unknown
Doppler factor
Unknown
Orbital elements
Apogee altitude
1,371.52 km
Perigee altitude
993.702 km
Semi-major axis
7,560.748 km
Eccentricity
0.02499
Inclination
105.79°
RAAN
316.5511°
Arg. of periapsis
59.2057°
True anomaly
300.9045°
Mean anomaly
303.3375°
Eccentric anomaly
302.12512°
Mean motion
3.30138 °/min
Orbital period
109.05 mins
BSTAR
0.00098535
Loading maneuver chart data...
Computing Atmospheric mass density...
Loading historical data...
Loading historical data...
Loading historical data...
Loading historical data...
Loading historical data...
Loading historical data...
Loading historical data...

Documentation

Showing up to 5 results
|